TimeAST,TemperatureF,Dew PointF,Humidity,Sea Level PressureIn,VisibilityMPH,Wind Direction,Wind SpeedMPH,Gust SpeedMPH,PrecipitationIn,Events,Conditions,WindDirDegrees,DateUTC
12:00 AM,77.0,69.8,78,30.12,6.2,East,13.8,-,N/A,,Partly Cloudy,80,2013-01-05 04:00:00
1:00 AM,77.0,68.0,74,30.12,6.2,East,12.7,-,N/A,,Partly Cloudy,90,2013-01-05 05:00:00
2:00 AM,78,68,65,30.11,16,East,11.5,,,Rain,Light Rain Showers,80,2013-01-05 06:00:00
2:00 AM,77.0,68.0,74,30.09,6.2,East,11.5,-,N/A,Rain,Light Rain Showers,80,2013-01-05 06:00:00
3:00 AM,77.0,68.0,74,30.09,6.2,ENE,13.8,-,N/A,,Partly Cloudy,70,2013-01-05 07:00:00
4:00 AM,77.0,69.8,78,30.09,6.2,ENE,12.7,-,N/A,,Partly Cloudy,70,2013-01-05 08:00:00
5:00 AM,78,69,68,30.11,19,East,12.7,,,,Scattered Clouds,80,2013-01-05 09:00:00
5:00 AM,77.0,69.8,78,30.09,6.2,East,12.7,-,N/A,,Partly Cloudy,80,2013-01-05 09:00:00
6:00 AM,77.0,69.8,78,30.09,6.2,East,11.5,-,N/A,,Scattered Clouds,90,2013-01-05 10:00:00
7:00 AM,78.8,69.8,74,30.12,6.2,East,11.5,-,N/A,,Scattered Clouds,80,2013-01-05 11:00:00
8:00 AM,78,70,69,30.17,19,East,15.0,,,Rain,Light Rain Showers,80,2013-01-05 12:00:00
8:00 AM,78.8,69.8,74,30.15,6.2,East,15.0,-,N/A,,Mostly Cloudy,80,2013-01-05 12:00:00
9:00 AM,80.6,69.8,70,30.18,6.2,East,13.8,-,N/A,,Scattered Clouds,80,2013-01-05 13:00:00
10:00 AM,82.4,69.8,66,30.18,6.2,East,17.3,-,N/A,,Mostly Cloudy,90,2013-01-05 14:00:00
11:00 AM,83,68,53,30.18,25,East,16.1,,,,Mostly Cloudy,90,2013-01-05 15:00:00
11:00 AM,84.2,69.8,62,30.15,6.2,ENE,17.3,-,N/A,,Mostly Cloudy,70,2013-01-05 15:00:00
12:00 PM,82.4,69.8,66,30.15,6.2,ENE,17.3,-,N/A,,Mostly Cloudy,70,2013-01-05 16:00:00
1:00 PM,84.2,69.8,62,30.12,6.2,ENE,16.1,-,N/A,,Mostly Cloudy,70,2013-01-05 17:00:00
2:00 PM,83,69,54,30.12,16,East,18.4,,,,Partly Cloudy,80,2013-01-05 18:00:00
2:00 PM,82.4,69.8,66,30.09,6.2,ENE,18.4,-,N/A,,Scattered Clouds,70,2013-01-05 18:00:00
3:00 PM,82.4,69.8,66,30.09,6.2,East,17.3,-,N/A,,Mostly Cloudy,90,2013-01-05 19:00:00
4:00 PM,82.4,68.0,62,30.09,6.2,ENE,17.3,-,N/A,,Scattered Clouds,70,2013-01-05 20:00:00
5:00 PM,81,69,58,30.11,22,East,18.4,,,,Partly Cloudy,80,2013-01-05 21:00:00
5:00 PM,80.6,68.0,65,30.09,6.2,East,18.4,-,N/A,,Scattered Clouds,80,2013-01-05 21:00:00
6:00 PM,78.8,69.8,74,30.09,6.2,East,13.8,-,N/A,,Scattered Clouds,80,2013-01-05 22:00:00
7:00 PM,78.8,69.8,74,30.09,6.2,East,17.3,-,N/A,,Mostly Cloudy,80,2013-01-05 23:00:00
8:00 PM,79,68,61,30.14,22,East,19.6,,,,Partly Cloudy,100,2013-01-06 00:00:00
8:00 PM,78.8,68.0,69,30.12,6.2,East,19.6,-,N/A,,Scattered Clouds,80,2013-01-06 00:00:00
9:00 PM,78.8,68.0,69,30.15,6.2,East,17.3,-,N/A,,Scattered Clouds,80,2013-01-06 01:00:00
10:00 PM,78.8,69.8,74,30.12,6.2,East,21.9,-,N/A,,Scattered Clouds,80,2013-01-06 02:00:00
11:00 PM,78,69,66,30.14,22,East,16.1,,,,Partly Cloudy,90,2013-01-06 03:00:00
11:00 PM,78.8,68.0,69,30.12,6.2,East,16.1,-,N/A,,Scattered Clouds,90,2013-01-06 03:00:00